Dewpoint
30 24 20 22 25 20 20 21 20 22 23 22 22 22 23 24 23 25 27 29 29 29 30 30 30 31 30 31 31 31 31 32 37 43 46 45 45 45 47 50 51 53 55 55
27 22 23 24 25 24 23 22 22 23 24 22 21 21 23 24 24 24 28 29 29 29 28 28 28 29 29 30 31 31 31 31 32 35 41 42 41 42 42 41 38 38 48 51
25 25 28 26 25 24 24 23 22 22 24 23 23 21 22 25 27 29 30 30 30 28 27 28 27 27 28 28 29 30 31 31 31 32 33 33 35 34 34 33 33 34 39 44
26 27 26 26 26 26 25 26 25 25 22 20 24 18 22 23 25 27 28 29 29 28 28 28 27 26 25 26 27 29 30 30 30 31 31 30 31 30 32 32 32 32 33 33
27 27 26 25 26 27 26 25 22 21 20 22 21 19 20 24 24 26 27 28 28 28 28 27 28 27 27 25 25 25 27 28 28 28 31 31 30 31 31 31 31 31 32 32
27 26 25 24 25 26 25 22 25 26 23 20 21 20 21 20 23 27 27 28 28 28 27 27 27 26 25 25 24 24 24 24 24 24 24 26 27 23 24 25 25 27 29 28
26 26 26 24 22 25 22 22 22 21 19 20 24 23 22 25 26 27 27 28 28 27 26 26 25 24 23 23 23 22 23 23 23 22 21 21 20 21 21 23 24 23 24 25
27 27 25 25 23 23 22 23 25 21 19 20 25 22 23 26 27 28 28 28 27 27 26 26 25 24 23 22 21 21 22 23 24 24 23 22 20 20 20 22 22 23 23 24
26 28 26 25 26 27 25 25 29 26 21 20 24 24 25 26 25 26 25 25 25 26 27 26 25 25 23 21 21 20 20 21 23 24 24 24 24 22 21 21 22 22 23 21
31 27 29 27 29 27 26 30 25 26 18 15 20 22 22 24 23 24 24 24 24 23 24 26 24 23 23 22 21 21 20 18 19 22 23 23 23 23 23 22 21 21 22 22
31 30 28 28 27 27 25 25 29 28 24 17 14 17 24 26 24 23 23 23 23 22 21 21 24 21 21 21 21 20 19 18 18 18 19 20 22 20 21 20 21 21 21 21
32 31 25 27 29 30 28 26 27 24 21 24 24 21 27 26 26 24 22 23 22 21 20 22 17 19 18 17 15 17 18 19 19 18 17 18 18 18 19 19 20 21 21 22
34 29 19 23 21 31 28 29 28 28 28 21 21 21 26 24 23 23 22 22 21 21 13 20 14 14 13 11 12 10 14 16 18 17 17 16 17 18 18 19 20 21 21 21
37 31 26 22 18 25 23 24 25 24 24 21 23 24 24 25 25 25 23 23 22 21 13 12 12 10 10 9 10 9 10 13 16 16 17 16 17 18 19 20 20 21 21 21
33 28 30 29 27 27 26 26 25 25 23 20 18 15 17 22 23 21 21 21 25 20 12 10 12 13 12 14 13 12 12 14 15 15 16 17 19 18 19 20 20 19 18 17
30 24 25 18 24 24 22 23 24 24 23 23 22 22 24 21 16 15 17 15 20 21 18 13 12 13 12 10 12 15 15 15 17 17 18 17 19 19 19 19 19 16 14 13
27 24 18 14 20 17 10 15 14 10 15 14 9 13 18 18 17 14 13 11 8 3 10 13 10 11 12 12 12 15 18 18 19 18 16 16 18 18 18 16 12 10 10 10
25 19 18 11 7 -2 10 12 12 11 13 16 19 15 18 19 16 11 10 8 8 10 9 8 8 8 11 16 16 17 18 18 18 16 14 15 16 13 12 10 9 8 7 7
25 20 15 8 2 7 7 8 11 11 9 15 16 14 17 14 8 6 7 10 10 12 14 15 15 14 17 16 16 16 16 16 15 14 16 14 12 9 8 6 6 6 5 5
23 22 14 -0 -2 -2 5 12 11 10 4 10 11 12 14 11 6 7 9 12 13 13 14 15 18 18 14 13 13 14 14 13 12 14 11 10 10 4 5 5 3 3 3 4
8 11 16 11 -1 5 13 15 12 2 4 11 14 16 15 12 11 13 14 13 15 17 17 19 18 15 12 13 13 11 11 9 11 10 9 7 6 4 2 2 2 1 0 1
8 8 8 8 8 4 16 13 9 12 19 19 18 16 15 15 15 16 16 16 16 16 20 18 15 11 12 11 10 8 7 9 7 6 4 2 -1 -0 2 -2 -2 -2 -3 -3
3 9 4 10 9 14 17 14 16 18 18 21 18 16 16 15 15 16 16 15 15 16 18 16 14 11 9 9 8 6 7 6 4 -2 -7 -7 -4 -1 -0 -4 -3 -4 -4 -5
10 10 9 8 8 12 15 16 14 18 18 18 19 18 17 16 17 17 15 15 15 18 16 12 9 7 6 6 8 4 3 3 -10 -14 -8 -4 -4 -4 -4 -2 -2 -4 -5 -5
10 12 10 10 10 11 12 14 14 14 17 17 17 17 17 18 16 15 16 18 18 16 13 10 7 6 5 6 4 -1 0 -6 -8 -9 -4 -5 -5 -7 -4 -3 -3 -2 -1 2
12 8 8 7 8 9 10 13 15 16 16 17 17 17 17 17 16 17 17 17 16 12 9 6 5 3 1 -0 -0 -4 -10 -12 -13 -7 -4 -4 -4 -4 -4 -4 -5 3 7 10
Lifted_Index
7 6 5 5 6 6 6 5 5 6 6 6 6 6 6 6 6 6 6 6 6 7 8 9 10 10 10 10 10 10 10 10 9 9 8 6 5 4 5 5 5 5 5 4
6 5 5 6 6 6 5 5 5 5 6 6 6 6 6 6 6 6 6 6 6 7 8 9 9 10 10 10 10 10 10 10 10 9 9 8 7 6 6 6 6 6 6 6
5 5 5 5 5 5 5 5 5 5 5 5 6 6 5 5 5 5 5 5 5 6 7 8 9 9 10 10 11 11 11 11 11 11 10 9 9 8 8 8 8 8 8 8
5 5 5 4 4 5 5 5 5 5 5 5 5 5 5 5 5 5 5 5 6 7 7 8 8 9 10 11 11 12 12 12 12 12 11 10 9 9 9 10 11 11 11 10
5 5 4 4 4 5 5 5 5 5 5 5 4 4 4 5 5 4 4 5 6 7 8 8 8 9 10 11 12 12 13 12 12 12 11 11 10 10 10 11 11 12 13 13
5 5 5 5 5 5 5 4 4 4 3 3 3 4 4 5 4 4 4 5 6 7 7 8 8 8 9 11 12 12 12 12 12 12 12 11 11 11 11 11 11 12 13 13
4 4 5 5 5 5 4 3 2 2 2 2 3 3 4 5 5 4 4 5 5 6 7 7 7 7 8 9 10 10 10 11 11 12 12 12 12 12 13 13 13 13 14 14
3 3 3 3 3 3 3 2 1 1 1 2 3 3 4 5 5 5 4 4 5 5 6 6 6 6 7 8 8 9 10 11 12 13 14 14 14 15 15 16 16 16 16 17
2 2 2 2 2 3 2 2 2 1 1 1 3 4 5 5 5 5 4 4 4 5 5 5 6 6 6 7 7 9 10 11 13 14 15 16 16 16 16 17 18 18 18 18
3 2 2 3 3 3 3 3 2 2 2 1 2 4 5 5 5 4 4 4 4 4 5 5 5 6 6 6 7 9 10 11 13 14 15 16 16 16 16 17 17 17 18 18
3 3 3 3 3 3 3 3 3 3 2 2 2 3 4 5 4 4 4 4 4 4 5 5 5 5 6 6 7 8 10 11 12 13 14 15 15 16 16 16 16 16 17 17
3 3 3 3 4 4 4 4 3 3 3 2 2 3 4 4 3 3 3 4 4 5 5 5 5 5 6 6 8 9 10 11 12 13 14 14 15 15 15 15 16 16 16 17
3 3 3 3 4 4 4 4 4 3 3 3 3 3 3 3 3 3 3 4 5 6 6 5 5 5 6 7 9 10 12 12 13 14 14 14 14 15 15 15 15 16 16 16
2 3 3 3 3 4 4 4 4 4 4 3 3 3 3 3 3 3 4 5 6 6 5 5 5 5 6 8 10 11 12 13 13 14 14 14 14 14 14 14 15 15 16 16
2 3 3 3 3 3 4 4 4 4 4 4 4 4 4 4 4 4 5 6 5 5 5 5 6 7 8 9 11 12 12 13 13 13 13 13 13 13 13 13 13 14 14 14
2 2 3 3 3 3 4 5 5 4 4 4 4 4 4 5 5 5 5 6 6 6 6 7 7 8 9 10 11 11 12 12 11 11 11 11 11 11 11 11 12 12 12 12
2 2 3 3 3 4 4 5 5 5 5 4 4 5 5 5 6 6 6 7 7 8 8 8 9 9 10 10 10 10 10 10 10 9 9 9 9 9 10 10 10 11 11 11
3 3 3 3 3 4 5 6 5 5 5 5 5 5 6 7 7 8 8 8 8 8 9 9 10 10 10 10 9 9 9 8 8 8 8 8 9 9 10 10 10 11 11 11
3 4 4 4 3 3 5 5 5 5 5 5 6 6 7 8 8 8 8 8 8 9 9 9 9 9 8 8 8 7 7 7 7 7 8 8 9 10 10 10 11 11 11 11
4 4 4 3 3 3 4 5 5 5 5 6 7 7 8 8 8 8 8 8 8 8 8 8 8 7 7 7 6 6 6 6 6 7 8 9 9 10 10 11 11 11 11 11
4 4 4 3 3 3 5 5 5 4 5 6 7 8 8 8 8 8 8 8 8 8 7 7 6 6 6 6 6 6 6 6 7 7 8 9 10 10 10 11 11 11 11 11
4 4 4 4 3 4 5 6 5 5 6 7 8 8 8 8 8 8 8 8 7 7 6 6 5 5 5 6 5 5 6 6 7 8 9 9 10 10 10 10 10 10 10 10
5 4 4 4 5 5 5 5 5 6 6 7 7 8 8 8 8 8 7 6 6 6 5 5 5 5 5 5 5 5 6 7 7 8 9 9 9 10 9 9 9 10 10 10
5 5 5 5 5 5 5 5 5 6 6 6 6 7 7 7 7 6 6 5 5 5 5 5 5 5 5 5 5 6 6 7 8 8 8 9 9 9 9 9 9 9 10 10
5 5 5 5 5 5 5 5 5 5 5 5 5 5 5 5 5 5 4 4 4 4 5 5 4 4 4 5 5 6 7 7 7 7 8 8 8 8 8 9 9 10 11 12
5 5 5 5 5 5 5 5 5 5 5 5 4 4 4 4 4 4 4 4 4 4 5 5 4 4 4 5 5 6 7 7 7 7 7 7 7 8 8 8 9 10 12 13